User: anonymous   Login
Location: Unspecified
(0.0000°N, 0.0000°E)
Time: 20:46:29
(UTC+00:00)
Language:

NOSS 2-3 (C) - Orbit

View from above orbital plane
View from above orbital plane
View from above satellite
View from above satellite

Ground track
Ground track

The orbit data is extracted from the following two-line orbital elements,

1 23908U 96029C   18109.04181735 0.00000040  00000-0  21786-4 0    01
2 23908  63.3760 347.5259 0633000  14.3888 345.6112 13.40877663    05
Epoch (UTC): 19 April 2018 01:00:13
Eccentricity: 0.0633000
inclination: 63.3760°
perigee height: 632 km
apogee height: 1580 km
right ascension of ascending node: 347.5259°
argument of perigee: 14.3888°
revolutions per day: 13.40877663
mean anomaly at epoch: 345.6112°
orbit number at epoch: 0

The dashed part of the orbit path shows where the satellite is in the earth's shadow,  

DLR